User: anonymous   Login
Location: Aressy
(43.2833°N, 0.3167°W)
Time: 20:49:29
(UTC+00:00)
Language:

Cosmos 1346 Rocket - Orbit

View from above orbital plane
View from above orbital plane
View from above satellite
View from above satellite

Ground track
Ground track

The orbit data is extracted from the following two-line orbital elements,

1 13121U 82027B   21110.57032333  .00000314  00000-0  18201-4 0  9992
2 13121  81.1716 306.0826 0015638  98.6366 261.6631 15.09154077128308
Epoch (UTC): 20 April 2021 13:41:15
Eccentricity: 0.0015638
inclination: 81.1716°
perigee height: 528 km
apogee height: 549 km
right ascension of ascending node: 306.0826°
argument of perigee: 98.6366°
revolutions per day: 15.09154077
mean anomaly at epoch: 261.6631°
orbit number at epoch: 12830

The dashed part of the orbit path shows where the satellite is in the earth's shadow,  

DLR